START_TIME,STEP,MOV.,M29,t_acc.,H22,t_acc.,H26,t_acc.,H30,t_acc.
1979-07-17 18:00:31.880 ,1,1,0.,24.0,0.,24.0,0.,24.0,0.,24.0
1979-07-17 18:00:55.880 ,2,1,0.,24.0,0.,24.0,0.,24.0,0.,24.0
1979-07-17 18:01:19.880 ,6,1,0.,24.0,0.,24.0,0.,24.0,0.,24.0
1979-07-17 18:01:43.880 ,5,1,0.,24.0,0.,24.0,0.,24.0,0.,24.0
1979-07-17 18:02:07.880 ,1,1,0.,24.0,0.,24.0,0.,24.0,0.,24.0
1979-07-17 18:02:31.880 ,2,1,0.,24.0,0.,24.0,0.,24.0,0.,24.0
1979-07-17 18:02:55.880 ,6,1,0.,24.0,0.,24.0,0.,24.0,0.,24.0
1979-07-17 18:03:19.880 ,5,1,0.,24.0,0.,24.0,0.,24.0,0.,24.0
1979-07-17 18:03:43.880 ,1,1,0.,24.0,0.,24.0,0.,24.0,0.,24.0
1979-07-17 18:04:07.880 ,2,1,0.,24.0,0.,24.0,0.,24.0,0.,24.0
1979-07-17 18:04:31.880 ,6,1,0.,24.0,0.,24.0,0.,24.0,0.,24.0
1979-07-17 18:04:55.880 ,0,0,0.,24.0,0.,24.0,0.,24.0,0.,24.0
1979-07-17 18:05:19.880 ,0,0,0.,24.0,0.,24.0,0.,24.0,0.,24.0
1979-07-17 18:05:43.880 ,0,0,0.,24.0,0.,24.0,0.,24.0,0.,24.0
1979-07-17 18:06:07.880 ,0,0,0.,24.0,0.,24.0,0.,24.0,0.,24.0
1979-07-17 18:06:31.880 ,5,1,0.,24.0,0.,24.0,0.,24.0,0.,24.0
1979-07-17 18:06:55.880 ,5,0,0.,24.0,0.,24.0,0.,24.0,0.,24.0
1979-07-17 18:07:19.880 ,4,1,0.,24.0,0.,24.0,0.,24.0,0.,24.0
1979-07-17 18:07:43.880 ,4,0,0.,24.0,0.,24.0,0.,24.0,0.,24.0
1979-07-17 18:08:07.880 ,3,1,0.,24.0,0.,24.0,0.,24.0,0.,24.0
1979-07-17 18:08:31.880 ,3,0,0.,24.0,0.,24.0,0.,24.0,0.,24.0
1979-07-17 18:08:55.880 ,2,1,0.,24.0,0.,24.0,0.,24.0,0.,24.0
1979-07-17 18:09:19.880 ,2,0,0.,24.0,0.,24.0,0.,24.0,0.,24.0
1979-07-17 18:09:43.880 ,1,1,0.,24.0,0.,24.0,0.,24.0,0.,24.0
1979-07-17 18:10:07.880 ,1,0,0.,24.0,0.,24.0,0.,24.0,0.,24.0
1979-07-17 18:10:31.880 ,0,1,0.,24.0,0.,24.0,0.,24.0,0.,24.0
1979-07-17 18:10:55.880 ,0,0,0.,24.0,0.,24.0,0.,24.0,0.,24.0
1979-07-17 18:11:19.880 ,0,1,0.,24.0,0.,24.0,0.,24.0,0.,24.0
1979-07-17 18:11:43.880 ,0,0,0.,24.0,0.,24.0,0.,24.0,0.,24.0
1979-07-17 18:12:07.880 ,1,1,0.,24.0,0.,24.0,0.,24.0,0.,24.0
1979-07-17 18:12:31.880 ,1,0,0.,24.0,0.,24.0,0.,24.0,0.,24.0
1979-07-17 18:12:55.880 ,2,1,0.,24.0,0.,24.0,0.,24.0,0.,24.0
1979-07-17 18:13:19.880 ,2,0,0.,24.0,0.,24.0,0.,24.0,0.,24.0
1979-07-17 18:13:43.880 ,3,1,0.,24.0,0.,24.0,0.,24.0,0.,24.0
1979-07-17 18:14:07.880 ,3,0,0.,24.0,0.,24.0,0.,24.0,0.,24.0
1979-07-17 18:14:31.880 ,4,1,0.,24.0,0.,24.0,0.,24.0,0.,24.0
1979-07-17 18:14:55.880 ,4,0,0.,24.0,0.,24.0,0.,24.0,0.,24.0
1979-07-17 18:15:19.880 ,5,1,0.,24.0,0.,24.0,0.,24.0,0.,24.0
1979-07-17 18:15:43.880 ,5,0,0.,24.0,0.,24.0,0.,24.0,0.,24.0
1979-07-17 18:16:07.880 ,6,1,0.,24.0,0.,24.0,0.,24.0,0.,24.0
1979-07-17 18:16:31.880 ,6,0,0.,24.0,0.,24.0,0.,24.0,0.,24.0
1979-07-17 18:16:55.880 ,7,1,0.,24.0,0.,24.0,0.,24.0,0.,24.0
1979-07-17 18:17:19.880 ,7,0,0.,24.0,0.,24.0,0.,24.0,0.,24.0
1979-07-17 18:17:43.880 ,7,1,0.,24.0,0.,24.0,0.,24.0,0.,24.0
1979-07-17 18:18:07.880 ,7,0,0.,24.0,0.,24.0,0.,24.0,0.,24.0
1979-07-17 18:18:31.880 ,6,1,0.,24.0,0.,24.0,0.,24.0,0.,24.0
1979-07-17 18:18:55.880 ,6,0,0.,24.0,0.,24.0,0.,24.0,0.,24.0
1979-07-17 18:19:19.880 ,5,1,0.,24.0,0.,24.0,0.,24.0,0.,24.0
1979-07-17 18:19:43.880 ,5,0,0.,24.0,0.,24.0,0.,24.0,0.,24.0
1979-07-17 18:20:07.880 ,4,1,0.,24.0,0.,24.0,0.,24.0,0.,24.0
1979-07-17 18:20:31.880 ,4,0,0.,24.0,0.,24.0,0.,24.0,0.,24.0
1979-07-17 18:20:55.880 ,3,1,0.,24.0,0.,24.0,0.,24.0,0.,24.0
1979-07-17 18:21:19.880 ,3,0,0.,24.0,0.,24.0,0.,24.0,0.,24.0
1979-07-17 18:21:43.880 ,2,1,0.,24.0,0.,24.0,0.,24.0,0.,24.0
1979-07-17 18:22:07.880 ,2,0,0.,24.0,0.,24.0,0.,24.0,0.,24.0
1979-07-17 18:22:31.880 ,1,1,0.,24.0,0.,24.0,0.,24.0,0.,24.0
1979-07-17 18:22:55.880 ,1,0,0.,24.0,0.,24.0,0.,24.0,0.,24.0
1979-07-17 18:23:19.880 ,0,1,0.,24.0,0.,24.0,0.,24.0,0.,24.0
1979-07-17 18:23:43.880 ,0,0,0.,24.0,0.,24.0,0.,24.0,0.,24.0
1979-07-17 18:24:07.880 ,0,1,0.,24.0,0.,24.0,0.,24.0,0.,24.0
1979-07-17 18:24:31.880 ,0,0,0.,24.0,0.,24.0,0.,24.0,0.,24.0
1979-07-17 18:24:55.880 ,1,1,0.,24.0,0.,24.0,0.,24.0,0.,24.0
1979-07-17 18:25:19.880 ,1,0,0.,24.0,0.,24.0,0.,24.0,0.,24.0
1979-07-17 18:25:43.880 ,2,1,0.,24.0,0.,24.0,0.,24.0,0.,24.0
1979-07-17 18:26:07.880 ,2,0,0.,24.0,0.,24.0,0.,24.0,0.,24.0
1979-07-17 18:26:31.880 ,3,1,0.,24.0,0.,24.0,0.,24.0,0.,24.0
1979-07-17 18:26:55.880 ,3,0,0.,24.0,0.,24.0,0.,24.0,0.,24.0
1979-07-17 18:27:19.880 ,4,1,0.,24.0,0.,24.0,0.,24.0,0.,24.0
1979-07-17 18:27:43.880 ,4,0,0.,24.0,0.,24.0,0.,24.0,0.,24.0
1979-07-17 18:28:07.880 ,5,1,0.,24.0,0.,24.0,0.,24.0,0.,24.0
1979-07-17 18:28:31.880 ,5,0,0.,24.0,0.,24.0,0.,24.0,0.,24.0
1979-07-17 18:28:55.880 ,6,1,0.,24.0,0.,24.0,0.,24.0,0.,24.0
1979-07-17 18:29:19.880 ,6,0,0.,24.0,0.,24.0,0.,24.0,0.,24.0
1979-07-17 18:29:43.880 ,7,1,0.,24.0,0.,24.0,0.,24.0,0.,24.0
1979-07-17 18:30:07.880 ,7,0,0.,24.0,0.,24.0,0.,24.0,0.,24.0
1979-07-17 18:30:31.880 ,7,1,0.,24.0,0.,24.0,0.,24.0,0.,24.0
1979-07-17 18:30:55.880 ,7,0,0.,24.0,0.,24.0,0.,24.0,0.,24.0
1979-07-17 18:31:19.880 ,6,1,0.,24.0,0.,24.0,0.,24.0,0.,24.0
1979-07-17 18:31:43.880 ,6,0,0.,24.0,0.,24.0,0.,24.0,0.,24.0
1979-07-17 18:32:07.880 ,5,1,0.,24.0,0.,24.0,0.,24.0,0.,24.0
1979-07-17 18:32:31.880 ,5,0,0.,24.0,0.,24.0,0.,24.0,0.,24.0
1979-07-17 18:32:55.880 ,4,1,0.,24.0,0.,24.0,0.,24.0,0.,24.0
1979-07-17 18:33:19.880 ,4,0,0.,24.0,0.,24.0,0.,24.0,0.,24.0
1979-07-17 18:33:43.880 ,3,1,0.,24.0,0.,24.0,0.,24.0,0.,24.0
1979-07-17 18:34:07.880 ,3,0,0.,24.0,0.,24.0,0.,24.0,0.,24.0
1979-07-17 18:34:31.880 ,2,1,0.,24.0,0.,24.0,0.,24.0,0.,24.0
1979-07-17 18:34:55.880 ,2,0,0.,24.0,0.,24.0,0.,24.0,0.,24.0
1979-07-17 18:35:19.880 ,1,1,0.,24.0,0.,24.0,0.,24.0,0.,24.0
1979-07-17 18:35:43.880 ,1,0,0.,24.0,0.,24.0,0.,24.0,0.,24.0
1979-07-17 18:36:07.880 ,0,1,0.,24.0,0.,24.0,0.,24.0,0.,24.0
1979-07-17 18:36:31.880 ,0,0,0.,24.0,0.,24.0,0.,24.0,0.,24.0
1979-07-17 18:36:55.880 ,0,1,0.,24.0,0.,24.0,0.,24.0,0.,24.0
1979-07-17 18:37:19.880 ,0,0,0.,24.0,0.,24.0,0.,24.0,0.,24.0
1979-07-17 18:37:43.880 ,1,1,0.,24.0,0.,24.0,0.,24.0,0.,24.0
1979-07-17 18:38:07.880 ,1,0,0.,24.0,0.,24.0,0.,24.0,0.,24.0
1979-07-17 18:38:31.880 ,2,1,0.,24.0,0.,24.0,0.,24.0,0.,24.0
1979-07-17 18:38:55.880 ,2,0,0.,24.0,0.,24.0,0.,24.0,0.,24.0
1979-07-17 18:39:19.880 ,3,1,0.,24.0,0.,24.0,0.,24.0,0.,24.0
1979-07-17 18:39:43.880 ,3,0,0.,24.0,0.,24.0,0.,24.0,0.,24.0
1979-07-17 18:40:07.880 ,4,1,0.,24.0,0.,24.0,0.,24.0,0.,24.0
1979-07-17 18:40:31.880 ,4,0,0.,24.0,0.,24.0,0.,24.0,0.,24.0
1979-07-17 18:40:55.880 ,5,1,0.,24.0,0.,24.0,0.,24.0,0.,24.0
1979-07-17 18:41:19.880 ,5,0,0.,24.0,0.,24.0,0.,24.0,0.,24.0
1979-07-17 18:41:43.880 ,6,1,0.,24.0,0.,24.0,0.,24.0,0.,24.0
1979-07-17 18:42:07.880 ,6,0,0.,24.0,0.,24.0,0.,24.0,0.,24.0
1979-07-17 18:42:31.880 ,7,0,0.,24.0,0.,24.0,0.,24.0,0.,24.0
1979-07-17 18:42:55.880 ,7,0,0.,24.0,0.,24.0,0.,24.0,0.,24.0
1979-07-17 18:43:19.880 ,5,1,0.,24.0,0.,24.0,0.,24.0,0.,24.0
1979-07-17 18:43:43.880 ,1,1,0.,24.0,0.,24.0,0.,24.0,0.,24.0
1979-07-17 18:44:07.880 ,2,1,0.,24.0,0.,24.0,0.,24.0,0.,24.0
1979-07-17 18:44:31.880 ,6,1,0.,24.0,0.,24.0,0.,24.0,0.,24.0
1979-07-17 18:44:55.880 ,5,1,0.,24.0,0.,24.0,0.,24.0,0.,24.0
1979-07-17 18:45:19.880 ,1,1,0.,24.0,0.,24.0,0.,24.0,0.,24.0
1979-07-17 18:45:43.880 ,2,1,0.,24.0,0.,24.0,0.,24.0,0.,24.0
1979-07-17 18:46:07.880 ,6,1,0.,24.0,0.,24.0,0.,24.0,0.,24.0
1979-07-17 18:46:31.880 ,5,1,0.,24.0,0.,24.0,0.,24.0,0.,24.0
1979-07-17 18:46:55.880 ,1,1,0.,24.0,0.,24.0,0.,24.0,0.,24.0
1979-07-17 18:47:19.880 ,2,1,0.,24.0,0.,24.0,0.,24.0,0.,24.0
1979-07-17 18:47:43.880 ,6,1,0.,24.0,0.,24.0,0.,24.0,0.,24.0
1979-07-17 18:48:07.880 ,5,1,0.,24.0,0.,24.0,0.,24.0,0.,24.0
1979-07-17 18:48:31.880 ,1,1,0.,24.0,0.,24.0,0.,24.0,0.,24.0
1979-07-17 18:48:55.880 ,2,1,0.,24.0,0.,24.0,0.,24.0,0.,24.0
1979-07-17 18:49:19.880 ,6,1,0.,24.0,0.,24.0,0.,24.0,0.,24.0
1979-07-17 18:49:43.880 ,5,1,0.,24.0,0.,24.0,0.,24.0,0.,24.0
1979-07-17 18:50:07.880 ,1,1,0.,24.0,0.,24.0,0.,24.0,0.,24.0
1979-07-17 18:50:31.880 ,2,1,0.,24.0,0.,24.0,0.,24.0,0.,24.0
1979-07-17 18:50:55.880 ,6,1,0.,24.0,0.,24.0,0.,24.0,0.,24.0
1979-07-17 18:51:19.880 ,5,1,0.,24.0,0.,24.0,0.,24.0,0.,24.0
1979-07-17 18:51:43.880 ,1,1,0.,24.0,0.,24.0,0.,24.0,0.,24.0
1979-07-17 18:52:07.880 ,2,1,0.,24.0,0.,24.0,0.,24.0,0.,24.0
1979-07-17 18:52:31.880 ,6,1,0.,24.0,0.,24.0,0.,24.0,0.,24.0
1979-07-17 18:52:55.880 ,5,1,0.,24.0,0.,24.0,0.,24.0,0.,24.0
1979-07-17 18:53:19.880 ,1,1,0.,24.0,0.,24.0,0.,24.0,0.,24.0
1979-07-17 18:53:43.880 ,0,0,0.,24.0,0.,24.0,0.,24.0,0.,24.0
1979-07-17 18:54:07.880 ,0,0,0.,24.0,0.,24.0,0.,24.0,0.,24.0
1979-07-17 18:54:31.880 ,5,1,0.,24.0,0.,24.0,0.,24.0,0.,24.0
1979-07-17 18:54:55.880 ,5,0,0.,24.0,0.,24.0,0.,24.0,0.,24.0
1979-07-17 18:55:19.880 ,4,1,0.,24.0,0.,24.0,0.,24.0,0.,24.0
1979-07-17 18:55:43.880 ,4,0,0.,24.0,0.,24.0,0.,24.0,0.,24.0
1979-07-17 18:56:07.880 ,3,1,0.,24.0,0.,24.0,0.,24.0,0.,24.0
1979-07-17 18:56:31.880 ,3,0,0.,24.0,0.,24.0,0.,24.0,0.,24.0
1979-07-17 18:56:55.880 ,2,1,0.,24.0,0.,24.0,0.,24.0,0.,24.0
1979-07-17 18:57:19.880 ,2,0,0.,24.0,0.,24.0,0.,24.0,0.,24.0
1979-07-17 18:57:43.880 ,1,1,0.,24.0,0.,24.0,0.,24.0,0.,24.0
1979-07-17 18:58:07.880 ,1,0,0.,24.0,0.,24.0,0.,24.0,0.,24.0
1979-07-17 18:58:31.880 ,0,1,0.,24.0,0.,24.0,0.,24.0,0.,24.0
1979-07-17 18:58:55.880 ,0,0,0.,24.0,0.,24.0,0.,24.0,0.,24.0
1979-07-17 18:59:19.880 ,0,1,0.,24.0,0.,24.0,0.,24.0,0.,24.0
1979-07-17 18:59:43.880 ,0,0,0.,24.0,0.,24.0,0.,24.0,0.,24.0
1979-07-17 19:00:07.880 ,1,1,0.,24.0,0.,24.0,0.,24.0,0.,24.0
1979-07-17 19:00:31.880 ,1,0,0.,24.0,0.,24.0,0.,24.0,0.,24.0
1979-07-17 19:00:55.880 ,2,1,0.,24.0,0.,24.0,0.,24.0,0.,24.0
1979-07-17 19:01:19.880 ,2,0,0.,24.0,0.,24.0,0.,24.0,0.,24.0
1979-07-17 19:01:43.880 ,3,1,0.,24.0,0.,24.0,0.,24.0,0.,24.0
1979-07-17 19:02:07.880 ,3,0,0.,24.0,0.,24.0,0.,24.0,0.,24.0
1979-07-17 19:02:31.880 ,4,1,0.,24.0,0.,24.0,0.,24.0,0.,24.0
1979-07-17 19:02:55.880 ,4,0,0.,24.0,0.,24.0,0.,24.0,0.,24.0
1979-07-17 19:03:19.880 ,5,1,0.,24.0,0.,24.0,0.,24.0,0.,24.0
1979-07-17 19:03:43.880 ,5,0,0.,24.0,0.,24.0,0.,24.0,0.,24.0
1979-07-17 19:04:07.880 ,6,1,0.,24.0,0.,24.0,0.,24.0,0.,24.0
1979-07-17 19:04:31.880 ,6,0,0.,24.0,0.,24.0,0.,24.0,0.,24.0
1979-07-17 19:04:55.880 ,7,1,0.,24.0,0.,24.0,0.,24.0,0.,24.0
1979-07-17 19:05:19.880 ,7,0,0.,24.0,0.,24.0,0.,24.0,0.,24.0
1979-07-17 19:05:43.880 ,7,1,0.,24.0,0.,24.0,0.,24.0,0.,24.0
1979-07-17 19:06:07.880 ,7,0,0.,24.0,0.,24.0,0.,24.0,0.,24.0
1979-07-17 19:06:31.880 ,6,1,0.,24.0,0.,24.0,0.,24.0,0.,24.0
1979-07-17 19:06:55.880 ,6,0,0.,24.0,0.,24.0,0.,24.0,0.,24.0
1979-07-17 19:07:19.880 ,0,0,0.,24.0,0.,24.0,0.,24.0,0.,24.0
1979-07-17 19:07:43.880 ,0,0,,0,,0,,0,,0
1979-07-17 19:07:43.880 ,5,0,0.,24.0,0.,24.0,0.,24.0,0.,24.0
1979-07-17 19:08:07.880 ,4,1,0.,24.0,0.,24.0,0.,24.0,0.,24.0
1979-07-17 19:08:31.880 ,4,0,0.,24.0,0.,24.0,0.,24.0,0.,24.0
1979-07-17 19:08:55.880 ,3,1,0.,24.0,0.,24.0,0.,24.0,0.,24.0
1979-07-17 19:09:19.880 ,3,0,0.,24.0,0.,24.0,0.,24.0,0.,24.0
1979-07-17 19:09:43.880 ,2,1,0.,24.0,0.,24.0,0.,24.0,0.,24.0
1979-07-17 19:10:07.880 ,2,0,0.,24.0,0.,24.0,0.,24.0,0.,24.0
1979-07-17 19:10:31.880 ,1,1,0.,24.0,0.,24.0,0.,24.0,0.,24.0
1979-07-17 19:10:55.880 ,1,0,0.,24.0,0.,24.0,0.,24.0,0.,24.0
1979-07-17 19:11:19.880 ,0,1,0.,24.0,0.,24.0,0.,24.0,0.,24.0
1979-07-17 19:11:43.880 ,0,0,0.,24.0,0.,24.0,0.,24.0,0.,24.0
1979-07-17 19:12:07.880 ,0,1,0.,24.0,0.,24.0,0.,24.0,0.,24.0
1979-07-17 19:12:31.880 ,0,0,0.,24.0,0.,24.0,0.,24.0,0.,24.0
1979-07-17 19:12:55.880 ,1,1,0.,24.0,0.,24.0,0.,24.0,0.,24.0
1979-07-17 19:13:19.880 ,1,0,0.,24.0,0.,24.0,0.,24.0,0.,24.0
1979-07-17 19:13:43.880 ,2,1,0.,24.0,0.,24.0,0.,24.0,0.,24.0
1979-07-17 19:14:07.880 ,2,0,0.,24.0,0.,24.0,0.,24.0,0.,24.0
1979-07-17 19:14:31.880 ,3,1,0.,24.0,0.,24.0,0.,24.0,0.,24.0
1979-07-17 19:14:55.880 ,3,0,0.,24.0,0.,24.0,0.,24.0,0.,24.0
1979-07-17 19:15:19.880 ,4,1,0.,24.0,0.,24.0,0.,24.0,0.,24.0
1979-07-17 19:15:43.880 ,4,0,0.,24.0,0.,24.0,0.,24.0,0.,24.0
1979-07-17 19:16:07.880 ,5,1,0.,24.0,0.,24.0,0.,24.0,0.,24.0
1979-07-17 19:16:31.880 ,5,0,0.,24.0,0.,24.0,0.,24.0,0.,24.0
1979-07-17 19:16:55.880 ,6,1,0.,24.0,0.,24.0,0.,24.0,0.,24.0
1979-07-17 19:17:19.880 ,6,0,0.,24.0,0.,24.0,0.,24.0,0.,24.0
1979-07-17 19:17:43.880 ,7,1,0.,24.0,0.,24.0,0.,24.0,0.,24.0
1979-07-17 19:18:07.880 ,7,0,0.,24.0,0.,24.0,0.,24.0,0.,24.0
1979-07-17 19:18:31.870 ,7,1,0.,24.0,0.,24.0,0.,24.0,0.,24.0
1979-07-17 19:18:55.870 ,7,0,0.,24.0,0.,24.0,0.,24.0,0.,24.0
1979-07-17 19:19:19.870 ,6,1,0.,24.0,0.,24.0,0.,24.0,0.,24.0
1979-07-17 19:19:43.870 ,6,0,0.,24.0,0.,24.0,0.,24.0,0.,24.0
1979-07-17 19:20:07.870 ,5,1,0.,24.0,0.,24.0,0.,24.0,0.,24.0
1979-07-17 19:20:31.870 ,5,0,0.,24.0,0.,24.0,0.,24.0,0.,24.0
1979-07-17 19:20:55.870 ,4,1,0.,24.0,0.,24.0,0.,24.0,0.,24.0
1979-07-17 19:21:19.870 ,4,0,0.,24.0,0.,24.0,0.,24.0,0.,24.0
1979-07-17 19:21:43.870 ,3,1,0.,24.0,0.,24.0,0.,24.0,0.,24.0
1979-07-17 19:22:07.870 ,3,0,0.,24.0,0.,24.0,0.,24.0,0.,24.0
1979-07-17 19:22:31.870 ,2,1,0.,24.0,0.,24.0,0.,24.0,0.,24.0
1979-07-17 19:22:55.870 ,2,0,0.,24.0,0.,24.0,0.,24.0,0.,24.0
1979-07-17 19:23:19.870 ,1,1,0.,24.0,0.,24.0,0.,24.0,0.,24.0
1979-07-17 19:23:43.870 ,1,0,0.,24.0,0.,24.0,0.,24.0,0.,24.0
1979-07-17 19:24:07.870 ,0,1,0.,24.0,0.,24.0,0.,24.0,0.,24.0
1979-07-17 19:24:31.870 ,0,0,0.,24.0,0.,24.0,0.,24.0,0.,24.0
1979-07-17 19:24:55.870 ,0,1,0.,24.0,0.,24.0,0.,24.0,0.,24.0
1979-07-17 19:25:19.870 ,0,0,0.,24.0,0.,24.0,0.,24.0,0.,24.0
1979-07-17 19:25:43.870 ,1,1,0.,24.0,0.,24.0,0.,24.0,0.,24.0
1979-07-17 19:26:07.870 ,1,0,0.,24.0,0.,24.0,0.,24.0,0.,24.0
1979-07-17 19:26:31.870 ,2,1,0.,24.0,0.,24.0,0.,24.0,0.,24.0
1979-07-17 19:26:55.870 ,2,0,0.,24.0,0.,24.0,0.,24.0,0.,24.0
1979-07-17 19:27:19.870 ,3,1,0.,24.0,0.,24.0,0.,24.0,0.,24.0
1979-07-17 19:27:43.870 ,3,0,0.,24.0,0.,24.0,0.,24.0,0.,24.0
1979-07-17 19:28:07.870 ,4,1,0.,24.0,0.,24.0,0.,24.0,0.,24.0
1979-07-17 19:28:31.870 ,4,0,0.,24.0,0.,24.0,0.,24.0,0.,24.0
1979-07-17 19:28:55.870 ,5,1,0.,24.0,0.,24.0,0.,24.0,0.,24.0
1979-07-17 19:29:19.870 ,5,0,0.,24.0,0.,24.0,0.,24.0,0.,24.0
1979-07-17 19:29:43.870 ,6,1,0.,24.0,0.,24.0,0.,24.0,0.,24.0
1979-07-17 19:30:07.870 ,6,0,0.,24.0,0.,24.0,0.,24.0,0.,24.0
1979-07-17 19:30:31.870 ,7,0,0.,24.0,0.,24.0,0.,24.0,0.,24.0
1979-07-17 19:30:55.870 ,7,0,0.,24.0,0.,24.0,0.,24.0,0.,24.0
1979-07-17 19:31:19.870 ,5,1,0.,24.0,0.,24.0,0.,24.0,0.,24.0
1979-07-17 19:31:43.870 ,1,1,0.,24.0,0.,24.0,0.,24.0,0.,24.0
1979-07-17 19:32:07.870 ,2,1,0.,24.0,0.,24.0,0.,24.0,0.,24.0
1979-07-17 19:32:31.870 ,6,1,0.,24.0,0.,24.0,0.,24.0,0.,24.0
1979-07-17 19:32:55.870 ,5,1,0.,24.0,0.,24.0,0.,24.0,0.,24.0
1979-07-17 19:33:19.870 ,1,1,0.,24.0,0.,24.0,0.,24.0,0.,24.0
1979-07-17 19:33:43.870 ,2,1,0.,24.0,0.,24.0,0.,24.0,0.,24.0
1979-07-17 19:34:07.870 ,6,1,0.,24.0,0.,24.0,0.,24.0,0.,24.0
1979-07-17 19:34:31.870 ,5,1,0.,24.0,0.,24.0,0.,24.0,0.,24.0
1979-07-17 19:34:55.870 ,1,1,0.,24.0,0.,24.0,0.,24.0,0.,24.0
1979-07-17 19:35:19.870 ,2,1,0.,24.0,0.,24.0,0.,24.0,0.,24.0
1979-07-17 19:35:43.870 ,6,1,0.,24.0,0.,24.0,0.,24.0,0.,24.0
1979-07-17 19:36:07.870 ,5,1,0.,24.0,0.,24.0,0.,24.0,0.,24.0
1979-07-17 19:36:31.870 ,1,1,0.,24.0,0.,24.0,0.,24.0,0.,24.0
1979-07-17 19:36:55.870 ,2,1,0.,24.0,0.,24.0,0.,24.0,0.,24.0
1979-07-17 19:37:19.870 ,6,1,0.,24.0,0.,24.0,0.,24.0,0.,24.0
1979-07-17 19:37:43.870 ,5,1,0.,24.0,0.,24.0,0.,24.0,0.,24.0
1979-07-17 19:38:07.870 ,1,1,0.,24.0,0.,24.0,0.,24.0,0.,24.0
1979-07-17 19:38:31.870 ,2,1,0.,24.0,0.,24.0,0.,24.0,0.,24.0
1979-07-17 19:38:55.870 ,6,1,0.,24.0,0.,24.0,0.,24.0,0.,24.0
1979-07-17 19:39:19.870 ,5,1,0.,24.0,0.,24.0,0.,24.0,0.,24.0
1979-07-17 19:39:43.870 ,1,1,0.,24.0,0.,24.0,0.,24.0,0.,24.0
1979-07-17 19:40:07.870 ,2,1,0.,24.0,0.,24.0,0.,24.0,0.,24.0
1979-07-17 19:40:31.870 ,6,1,0.,24.0,0.,24.0,0.,24.0,0.,24.0
1979-07-17 19:40:55.870 ,5,1,0.,24.0,0.,24.0,0.,24.0,0.,24.0
1979-07-17 19:41:19.870 ,1,1,0.,24.0,0.,24.0,0.,24.0,0.,24.0
1979-07-17 19:41:43.870 ,0,0,0.,24.0,0.,24.0,0.,24.0,0.,24.0
1979-07-17 19:42:07.870 ,0,0,0.,24.0,0.,24.0,0.,24.0,0.,24.0
1979-07-17 19:42:31.870 ,5,1,0.,24.0,0.,24.0,0.,24.0,0.,24.0
1979-07-17 19:42:55.870 ,5,0,0.,24.0,0.,24.0,0.,24.0,0.,24.0
1979-07-17 19:43:19.870 ,4,1,0.,24.0,0.,24.0,0.,24.0,0.,24.0
1979-07-17 19:43:43.870 ,4,0,0.,24.0,0.,24.0,0.,24.0,0.,24.0
1979-07-17 19:44:07.870 ,3,1,0.,24.0,0.,24.0,0.,24.0,0.,24.0
1979-07-17 19:44:31.870 ,3,0,0.,24.0,0.,24.0,0.,24.0,0.,24.0
1979-07-17 19:44:55.870 ,2,1,0.,24.0,0.,24.0,0.,24.0,0.,24.0
1979-07-17 19:45:19.870 ,2,0,0.,24.0,0.,24.0,0.,24.0,0.,24.0
1979-07-17 19:45:43.870 ,1,1,0.,24.0,0.,24.0,0.,24.0,0.,24.0
1979-07-17 19:46:07.870 ,1,0,0.,24.0,0.,24.0,0.,24.0,0.,24.0
1979-07-17 19:46:31.870 ,0,1,0.,24.0,0.,24.0,0.,24.0,0.,24.0
1979-07-17 19:46:55.870 ,0,0,0.,24.0,0.,24.0,0.,24.0,0.,24.0
1979-07-17 19:47:19.870 ,0,1,0.,24.0,0.,24.0,0.,24.0,0.,24.0
1979-07-17 19:47:43.870 ,0,0,0.,24.0,0.,24.0,0.,24.0,0.,24.0
1979-07-17 19:48:07.870 ,1,1,0.,24.0,0.,24.0,0.,24.0,0.,24.0
1979-07-17 19:48:31.870 ,1,0,0.,24.0,0.,24.0,0.,24.0,0.,24.0
1979-07-17 19:48:55.870 ,2,1,0.,24.0,0.,24.0,0.,24.0,0.,24.0
1979-07-17 19:49:19.870 ,2,0,0.,24.0,0.,24.0,0.,24.0,0.,24.0
1979-07-17 19:49:43.870 ,3,1,0.,24.0,0.,24.0,0.,24.0,0.,24.0
1979-07-17 19:50:07.870 ,3,0,0.,24.0,0.,24.0,0.,24.0,0.,24.0
1979-07-17 19:50:31.870 ,4,1,0.,24.0,0.,24.0,0.,24.0,0.,24.0
1979-07-17 19:50:55.870 ,4,0,0.,24.0,0.,24.0,0.,24.0,0.,24.0
1979-07-17 19:51:19.870 ,5,1,0.,24.0,0.,24.0,0.,24.0,0.,24.0
1979-07-17 19:51:43.870 ,5,0,0.,24.0,0.,24.0,0.,24.0,0.,24.0
1979-07-17 19:52:07.870 ,6,1,0.,24.0,0.,24.0,0.,24.0,0.,24.0
1979-07-17 19:52:31.870 ,6,0,0.,24.0,0.,24.0,0.,24.0,0.,24.0
1979-07-17 19:52:55.870 ,7,1,0.,24.0,0.,24.0,0.,24.0,0.,24.0
1979-07-17 19:53:19.870 ,7,0,0.,24.0,0.,24.0,0.,24.0,0.,24.0
1979-07-17 19:53:43.870 ,7,1,0.,24.0,0.,24.0,0.,24.0,0.,24.0
1979-07-17 19:54:07.870 ,7,0,0.,24.0,0.,24.0,0.,24.0,0.,24.0
1979-07-17 19:54:31.870 ,6,1,0.,24.0,0.,24.0,0.,24.0,0.,24.0
1979-07-17 19:54:55.870 ,6,0,0.,24.0,0.,24.0,0.,24.0,0.,24.0
1979-07-17 19:55:19.870 ,5,1,0.,24.0,0.,24.0,0.,24.0,0.,24.0
1979-07-17 19:55:43.870 ,5,0,0.,24.0,0.,24.0,0.,24.0,0.,24.0
1979-07-17 19:56:07.870 ,4,1,0.,24.0,0.,24.0,0.,24.0,0.,24.0
1979-07-17 19:56:31.870 ,4,0,0.,24.0,0.,24.0,0.,24.0,0.,24.0
1979-07-17 19:56:55.870 ,3,1,0.,24.0,0.,24.0,0.,24.0,0.,24.0
1979-07-17 19:57:19.870 ,3,0,0.,24.0,0.,24.0,0.,24.0,0.,24.0
1979-07-17 19:57:43.870 ,2,1,0.,24.0,0.,24.0,0.,24.0,0.,24.0
1979-07-17 19:58:07.870 ,2,0,0.,24.0,0.,24.0,0.,24.0,0.,24.0
1979-07-17 19:58:31.870 ,1,1,0.,24.0,0.,24.0,0.,24.0,0.,24.0
1979-07-17 19:58:55.870 ,1,0,0.,24.0,0.,24.0,0.,24.0,0.,24.0
1979-07-17 19:59:19.870 ,0,1,0.,24.0,0.,24.0,0.,24.0,0.,24.0
1979-07-17 19:59:43.870 ,0,0,0.,24.0,0.,24.0,0.,24.0,0.,24.0
1979-07-17 20:00:07.870 ,0,1,0.,24.0,0.,24.0,0.,24.0,0.,24.0
1979-07-17 20:00:31.870 ,0,0,0.,24.0,0.,24.0,0.,24.0,0.,24.0
1979-07-17 20:00:55.870 ,1,1,0.,24.0,0.,24.0,0.,24.0,0.,24.0
1979-07-17 20:01:19.870 ,1,0,0.,24.0,0.,24.0,0.,24.0,0.,24.0
1979-07-17 20:01:43.870 ,2,1,0.,24.0,0.,24.0,0.,24.0,0.,24.0
1979-07-17 20:02:07.870 ,2,0,0.,24.0,0.,24.0,0.,24.0,0.,24.0
1979-07-17 20:02:31.870 ,3,1,0.,24.0,0.,24.0,0.,24.0,0.,24.0
1979-07-17 20:02:55.870 ,3,0,0.,24.0,0.,24.0,0.,24.0,0.,24.0
1979-07-17 20:03:19.870 ,4,1,0.,24.0,0.,24.0,0.,24.0,0.,24.0
1979-07-17 20:03:43.870 ,4,0,0.,24.0,0.,24.0,0.,24.0,0.,24.0
1979-07-17 20:04:07.870 ,5,1,0.,24.0,0.,24.0,0.,24.0,0.,24.0
1979-07-17 20:04:31.870 ,5,0,0.,24.0,0.,24.0,0.,24.0,0.,24.0
1979-07-17 20:04:55.870 ,6,1,0.,24.0,0.,24.0,0.,24.0,0.,24.0
1979-07-17 20:05:19.870 ,6,0,0.,24.0,0.,24.0,0.,24.0,0.,24.0
1979-07-17 20:05:43.870 ,7,1,0.,24.0,0.,24.0,0.,24.0,0.,24.0
1979-07-17 20:06:07.870 ,7,0,0.,24.0,0.,24.0,0.,24.0,0.,24.0
1979-07-17 20:06:31.870 ,7,1,0.,24.0,0.,24.0,0.,24.0,0.,24.0
1979-07-17 20:06:55.870 ,7,0,0.,24.0,0.,24.0,0.,24.0,0.,24.0
1979-07-17 20:07:19.870 ,6,1,0.,24.0,0.,24.0,0.,24.0,0.,24.0
1979-07-17 20:07:43.870 ,6,0,0.,24.0,0.,24.0,0.,24.0,0.,24.0
1979-07-17 20:08:07.870 ,5,1,0.,24.0,0.,24.0,0.,24.0,0.,24.0
1979-07-17 20:08:31.870 ,5,0,0.,24.0,0.,24.0,0.,24.0,0.,24.0
1979-07-17 20:08:55.870 ,4,1,0.,24.0,0.,24.0,0.,24.0,0.,24.0
1979-07-17 20:09:19.870 ,4,0,0.,24.0,0.,24.0,0.,24.0,0.,24.0
1979-07-17 20:09:43.870 ,3,1,0.,24.0,0.,24.0,0.,24.0,0.,24.0
1979-07-17 20:10:07.870 ,3,0,0.,24.0,0.,24.0,0.,24.0,0.,24.0
1979-07-17 20:10:31.870 ,2,1,0.,24.0,0.,24.0,0.,24.0,0.,24.0
1979-07-17 20:10:55.870 ,2,0,0.,24.0,0.,24.0,0.,24.0,0.,24.0
1979-07-17 20:11:19.870 ,1,1,0.,24.0,0.,24.0,0.,24.0,0.,24.0
1979-07-17 20:11:43.870 ,1,0,0.,24.0,0.,24.0,0.,24.0,0.,24.0
1979-07-17 20:12:07.870 ,0,1,0.,24.0,0.,24.0,0.,24.0,0.,24.0
1979-07-17 20:12:31.870 ,0,0,0.,24.0,0.,24.0,0.,24.0,0.,24.0
1979-07-17 20:12:55.870 ,0,1,0.,24.0,0.,24.0,0.,24.0,0.,24.0
1979-07-17 20:13:19.870 ,0,0,0.,24.0,0.,24.0,0.,24.0,0.,24.0
1979-07-17 20:13:43.870 ,1,1,0.,24.0,0.,24.0,0.,24.0,0.,24.0
1979-07-17 20:14:07.870 ,1,0,0.,24.0,0.,24.0,0.,24.0,0.,24.0
1979-07-17 20:14:31.870 ,2,1,0.,24.0,0.,24.0,0.,24.0,0.,24.0
1979-07-17 20:14:55.870 ,2,0,0.,24.0,0.,24.0,0.,24.0,0.,24.0
1979-07-17 20:15:19.870 ,3,1,0.,24.0,0.,24.0,0.,24.0,0.,24.0
1979-07-17 20:15:43.870 ,3,0,0.,24.0,0.,24.0,0.,24.0,0.,24.0
1979-07-17 20:16:07.870 ,4,1,0.,24.0,0.,24.0,0.,24.0,0.,24.0
1979-07-17 20:16:31.870 ,4,0,0.,24.0,0.,24.0,0.,24.0,0.,24.0
1979-07-17 20:16:55.870 ,5,1,0.,24.0,0.,24.0,0.,24.0,0.,24.0
1979-07-17 20:17:19.870 ,5,0,0.,24.0,0.,24.0,0.,24.0,0.,24.0
1979-07-17 20:17:43.870 ,6,1,0.,24.0,0.,24.0,0.,24.0,0.,24.0
1979-07-17 20:18:07.870 ,6,0,0.,24.0,0.,24.0,0.,24.0,0.,24.0
1979-07-17 20:18:31.870 ,7,0,0.,24.0,0.,24.0,0.,24.0,0.,24.0
1979-07-17 20:18:55.870 ,7,0,0.,24.0,0.,24.0,0.,24.0,0.,24.0
1979-07-17 20:19:19.870 ,5,1,0.,24.0,0.,24.0,0.,24.0,0.,24.0
1979-07-17 20:19:43.870 ,1,1,0.,24.0,0.,24.0,0.,24.0,0.,24.0
1979-07-17 20:20:07.870 ,2,1,0.,24.0,0.,24.0,0.,24.0,0.,24.0
1979-07-17 20:20:31.870 ,6,1,0.,24.0,0.,24.0,0.,24.0,0.,24.0
1979-07-17 20:20:55.870 ,5,1,0.,24.0,0.,24.0,0.,24.0,0.,24.0
1979-07-17 20:21:19.870 ,1,1,0.,24.0,0.,24.0,0.,24.0,0.,24.0
1979-07-17 20:21:43.870 ,2,1,0.,24.0,0.,24.0,0.,24.0,0.,24.0
1979-07-17 20:22:07.870 ,6,1,0.,24.0,0.,24.0,0.,24.0,0.,24.0
1979-07-17 20:22:31.870 ,5,1,0.,24.0,0.,24.0,0.,24.0,0.,24.0
1979-07-17 20:22:55.870 ,1,1,0.,24.0,0.,24.0,0.,24.0,0.,24.0
1979-07-17 20:23:19.870 ,2,1,0.,24.0,0.,24.0,0.,24.0,0.,24.0
1979-07-17 20:23:43.870 ,6,1,0.,24.0,0.,24.0,0.,24.0,0.,24.0
1979-07-17 20:24:07.870 ,5,1,0.,24.0,0.,24.0,0.,24.0,0.,24.0
1979-07-17 20:24:31.870 ,1,1,0.,24.0,0.,24.0,0.,24.0,0.,24.0
1979-07-17 20:24:55.870 ,2,1,0.,24.0,0.,24.0,0.,24.0,0.,24.0
1979-07-17 20:25:19.870 ,6,1,0.,24.0,0.,24.0,0.,24.0,0.,24.0
1979-07-17 20:25:43.870 ,5,1,0.,24.0,0.,24.0,0.,24.0,0.,24.0
1979-07-17 20:26:07.870 ,1,1,0.,24.0,0.,24.0,0.,24.0,0.,24.0
1979-07-17 20:26:31.870 ,2,1,0.,24.0,0.,24.0,0.,24.0,0.,24.0
1979-07-17 20:26:55.870 ,6,1,0.,24.0,0.,24.0,0.,24.0,0.,24.0
1979-07-17 20:27:19.870 ,5,1,0.,24.0,0.,24.0,0.,24.0,0.,24.0
1979-07-17 20:27:43.870 ,1,1,0.,24.0,0.,24.0,0.,24.0,0.,24.0
1979-07-17 20:28:07.870 ,0,0,0.,24.0,0.,24.0,0.,24.0,0.,24.0
1979-07-17 20:28:31.870 ,0,0,,0,,0,,0,,0
1979-07-17 20:29:39.670 ,0,0,,0,,0,,0,,0
1979-07-17 20:29:43.870 ,0,0,0.,24.0,0.,24.0,0.,24.0,0.,24.0
1979-07-17 20:30:07.870 ,0,0,0.,24.0,0.,24.0,0.,24.0,0.,24.0
1979-07-17 20:30:31.870 ,5,1,0.,24.0,0.,24.0,0.,24.0,0.,24.0
1979-07-17 20:30:55.870 ,5,0,0.,24.0,0.,24.0,0.,24.0,0.,24.0
1979-07-17 20:31:19.870 ,4,1,0.,24.0,0.,24.0,0.,24.0,0.,24.0
1979-07-17 20:31:43.870 ,4,0,0.,24.0,0.,24.0,0.,24.0,0.,24.0
1979-07-17 20:32:07.870 ,3,1,0.,24.0,0.,24.0,0.,24.0,0.,24.0
1979-07-17 20:32:31.870 ,3,0,0.,24.0,0.,24.0,0.,24.0,0.,24.0
1979-07-17 20:32:55.870 ,2,1,0.,24.0,0.,24.0,0.,24.0,0.,24.0
1979-07-17 20:33:19.870 ,2,0,0.,24.0,0.,24.0,0.,24.0,0.,24.0
1979-07-17 20:33:43.870 ,1,1,0.,24.0,0.,24.0,0.,24.0,0.,24.0
1979-07-17 20:34:07.870 ,1,0,0.,24.0,0.,24.0,0.,24.0,0.,24.0
1979-07-17 20:34:31.870 ,0,1,0.,24.0,0.,24.0,0.,24.0,0.,24.0
1979-07-17 20:34:55.870 ,0,0,0.,24.0,0.,24.0,0.,24.0,0.,24.0